Powrót do katalogu

FENGYUN 1C DEB

AktywnySSO
NORAD 31561·DEBRIS·🇨🇳 China

Wystrzelony May 10, 1999 z Taiyuan Satellite Launch Center

Loading…

Następne Przeloty (najbliższe 24 godziny)

TLE

ŚwieżeSource: Space-Track

Epoka: Sep 14, 2026, 10:35 UTC

1 31561U 99025BZC 26257.44148029  .00000561  00000-0  38176-3 0  9995
2 31561  98.7331 247.0834 0057034 130.7660  22.5977 14.03079553990444

Śledź FENGYUN 1C DEB w czasie rzeczywistym z AllMySat

Download on the App Store